Zurück zum Katalog

METOP-B

AktivWetterSSO
NORAD 38771·PAYLOAD·🇪🇺 EU

Gestartet Sep 17, 2012 von Baikonur Cosmodrome

Loading…

Nächste Überflüge (nächste 24 Stunden)

TLE

AktuellSource: Space-Track

Epoche: Sep 14, 2026, 22:30 UTC

1 38771U 12049A   26257.93752210  .00000069  00000-0  51252-4 0  9997
2 38771  98.6415 307.6080 0003449  90.2135 269.9437 14.21459141726013

Verfolge METOP-B in Echtzeit mit AllMySat

Download on the App Store